Probability
0 0 0 0 0 0 0 0 0 0 0 0 0 0 0 0 0 0 0 0 0 0 0 0 0 0 0 0 0 0 0 0 0 0 0 0 0 0
0 0 0 0 0 0 0 0 0 0 0 0 0 0 0 0 0 0 0 0 0 0 0 0 0 0 0 0 0 0 0 0 0 0 0 0 0 0
0 0 0 0 0 0 0 0 0 0 0 0 0 0 0 0 0 0 0 0 0 0 0 0 0 0 0 0 0 0 0 0 0 0 0 0 0 0
0 0 0 0 0 0 0 0 0 0 0 0 0 0 0 0 0 0 0 0 0 0 0 0 0 0 0 0 0 0 0 0 0 0 0 0 0 0
0 0 0 0 0 0 0 0 0 0 0 0 0 0 0 0 0 0 0 0 0 0 0 0 0 0 0 0 0 0 0 0 0 0 0 0 0 0
0 0 0 0 0 0 0 0 0 0 0 0 0 0 0 0 0 0 0 0 0 0 0 0 0 0 0 0 0 0 0 0 0 0 0 0 0 0
0 0 0 0 0 0 0 0 0 0 0 0 0 0 0 0 0 0 0 0 0 0 0 0 0 0 0 0 0 0 0 0 0 0 0 0 0 0
0 0 0 0 0 0 0 0 0 0 0 0 0 0 0 0 0 0 0 0 0 0 0 0 0 0 0 0 0 0 0 0 0 0 0 0 0 0
0 0 0 0 0 0 0 0 0 0 0 0 0 0 0 0 0 0 0 0 0 0 0 0 0 0 0 0 0 0 0 0 0 0 0 0 0 0
0 0 0 0 0 0 0 0 0 0 0 0 0 0 0 0 0 0 0 0 0 0 0 0 0 0 0 0 0 0 0 0 0 0 0 0 0 0
0 0 0 0 0 0 0 0 0 0 0 0 0 0 0 0 0 0 0 0 0 0 0 0 0 0 0 0 0 0 0 0 0 0 0 0 0 0
0 0 0 0 0 0 0 0 0 0 0 0 0 0 0 0 0 0 0 0 0 0 0 0 0 0 0 0 0 0 0 0 0 0 0 0 0 0
0 0 0 0 0 0 0 0 0 0 0 0 0 0 0 0 0 0 0 0 0 0 0 0 0 0 0 0 0 0 0 0 0 0 0 0 0 0
0 0 0 0 0 0 0 0 0 0 0 0 0 0 0 0 0 0 0 0 0 0 0 0 0 0 0 0 0 0 0 0 0 0 0 0 0 0
0 0 0 0 0 0 0 0 0 0 0 0 0 0 0 0 0 0 0 0 0 0 0 0 0 0 0 0 0 0 0 0 0 0 0 0 0 0
0 0 0 0 0 0 0 0 0 0 0 0 0 0 0 0 0 0 0 0 0 0 0 0 0 0 0 0 0 0 0 0 0 0 0 0 0 0
0 0 0 0 0 0 0 0 0 0 0 0 0 0 0 0 0 0 0 0 0 0 0 0 0 0 0 0 0 0 0 0 0 0 0 0 0 0
0 0 0 0 0 0 0 0 0 0 0 0 0 0 0 0 0 0 0 0 0 0 0 0 0 0 0 0 0 0 0 0 0 0 0 0 0 0
0 0 0 0 0 0 0 0 0 0 0 0 0 0 0 0 0 0 0 0 0 0 0 0 0 0 0 0 0 0 0 0 0 0 0 0 0 0
0 0 0 0 0 0 0 0 0 0 0 0 0 0 0 0 0 0 0 0 0 0 0 0 0 0 0 0 0 0 0 0 0 0 0 0 0 0
0 0 0 0 0 0 0 0 0 0 0 0 0 0 0 0 0 0 0 0 0 0 0 0 0 0 0 0 0 0 0 0 0 0 0 0 0 0
0 0 0 0 0 0 0 0 0 0 0 0 0 0 0 0 0 0 0 0 0 0 0 0 0 0 0 0 0 0 0 0 0 0 0 0 0 0
0 0 0 0 0 0 0 0 0 0 0 0 0 0 0 0 0 0 0 0 0 0 0 0 0 0 0 0 0 0 0 0 0 0 0 0 0 0
Height
5644 5646 5649 5652 5654 5656 5658 5660 5662 5665 5668 5670 5671 5672 5674 5676 5678 5680 5682 5684 5685 5687 5688 5690 5691 5692 5694 5695 5696 5697 5698 5699 5700 5700 5701 5701 5702 5702
5629 5632 5635 5637 5640 5642 5644 5646 5647 5649 5652 5655 5656 5657 5659 5661 5663 5665 5667 5668 5670 5672 5674 5675 5677 5678 5679 5681 5682 5683 5684 5685 5686 5686 5687 5687 5688 5688
5615 5617 5620 5623 5625 5627 5629 5631 5632 5634 5636 5640 5641 5642 5643 5645 5647 5649 5651 5653 5655 5657 5658 5660 5662 5663 5664 5666 5667 5668 5669 5670 5671 5672 5672 5673 5673 5674
5600 5603 5605 5608 5610 5612 5614 5616 5617 5619 5621 5623 5625 5626 5628 5629 5631 5632 5634 5636 5638 5641 5642 5644 5646 5647 5648 5650 5651 5652 5654 5654 5655 5656 5657 5658 5658 5657
5585 5587 5590 5592 5595 5597 5598 5600 5601 5603 5604 5606 5609 5610 5611 5613 5614 5616 5617 5619 5621 5623 5625 5627 5629 5630 5632 5633 5634 5636 5637 5639 5640 5640 5640 5641 5641 5642
5569 5572 5574 5576 5578 5580 5582 5584 5585 5586 5588 5589 5592 5594 5595 5596 5598 5599 5601 5602 5604 5606 5608 5610 5611 5613 5615 5616 5618 5619 5620 5621 5622 5623 5624 5625 5625 5626
5554 5556 5558 5559 5561 5563 5565 5567 5568 5570 5571 5573 5575 5577 5579 5580 5582 5583 5584 5585 5587 5588 5590 5592 5594 5596 5597 5598 5600 5601 5603 5604 5605 5605 5606 5607 5608 5609
5538 5539 5541 5542 5544 5546 5547 5549 5551 5553 5555 5556 5558 5560 5562 5563 5564 5566 5567 5569 5571 5574 5573 5575 5576 5578 5580 5581 5582 5584 5585 5586 5587 5588 5589 5590 5591 5592
5521 5522 5524 5526 5527 5528 5529 5531 5533 5535 5537 5539 5541 5543 5545 5547 5547 5549 5549 5550 5553 5555 5555 5558 5559 5561 5563 5564 5565 5566 5568 5569 5569 5570 5571 5572 5573 5575
5504 5505 5507 5508 5510 5511 5512 5513 5515 5518 5521 5522 5525 5527 5527 5528 5529 5530 5531 5533 5536 5537 5538 5541 5543 5544 5545 5546 5547 5548 5550 5551 5552 5553 5554 5555 5556 5557
5487 5488 5490 5491 5493 5494 5495 5497 5499 5501 5502 5504 5507 5508 5510 5511 5512 5512 5514 5515 5518 5520 5520 5522 5525 5525 5527 5528 5529 5530 5532 5533 5534 5535 5536 5537 5538 5539
5471 5472 5473 5474 5474 5475 5476 5479 5482 5484 5485 5487 5489 5491 5492 5494 5494 5495 5496 5497 5500 5503 5504 5504 5506 5506 5509 5511 5512 5513 5514 5515 5516 5517 5518 5519 5520 5521
5453 5454 5455 5456 5457 5457 5459 5461 5464 5465 5467 5469 5471 5473 5475 5476 5477 5477 5478 5479 5482 5485 5486 5486 5487 5488 5489 5493 5494 5495 5496 5497 5498 5499 5500 5501 5502 5503
5436 5437 5438 5438 5439 5440 5441 5443 5445 5446 5448 5450 5452 5455 5456 5458 5459 5459 5460 5461 5463 5465 5467 5467 5468 5470 5471 5473 5476 5477 5478 5479 5480 5481 5482 5483 5484 5485
5419 5420 5420 5421 5422 5423 5424 5425 5426 5428 5430 5432 5434 5436 5438 5439 5440 5441 5441 5443 5444 5446 5447 5448 5449 5451 5452 5455 5457 5459 5460 5461 5461 5462 5464 5465 5466 5467
5402 5402 5403 5404 5404 5406 5407 5408 5409 5411 5412 5415 5416 5418 5419 5420 5421 5422 5423 5424 5425 5427 5428 5429 5430 5432 5434 5436 5438 5440 5441 5442 5443 5444 5445 5446 5447 5448
5385 5385 5386 5387 5388 5389 5390 5392 5393 5394 5396 5398 5399 5400 5401 5402 5403 5404 5405 5406 5407 5409 5410 5411 5412 5413 5415 5417 5419 5421 5422 5423 5425 5425 5426 5428 5430 5431
5368 5369 5370 5370 5372 5373 5374 5376 5377 5378 5379 5381 5382 5383 5384 5385 5386 5386 5387 5388 5389 5391 5392 5393 5394 5395 5397 5399 5401 5402 5404 5405 5406 5407 5408 5410 5412 5413
5353 5354 5354 5355 5356 5357 5358 5359 5361 5362 5363 5364 5365 5366 5367 5368 5368 5369 5370 5371 5372 5374 5375 5376 5377 5378 5380 5383 5386 5385 5386 5387 5388 5390 5391 5392 5394 5396
5339 5339 5339 5340 5341 5342 5343 5344 5345 5346 5347 5348 5349 5350 5350 5351 5352 5353 5353 5355 5356 5357 5358 5359 5360 5361 5363 5366 5368 5370 5369 5370 5371 5373 5374 5375 5376 5377
5324 5325 5325 5326 5326 5327 5328 5329 5329 5330 5332 5333 5333 5334 5334 5335 5336 5337 5338 5339 5340 5341 5343 5344 5345 5345 5346 5347 5350 5353 5353 5353 5354 5355 5357 5358 5359 5360
5310 5310 5311 5311 5312 5312 5313 5314 5315 5316 5317 5317 5318 5319 5319 5320 5321 5322 5323 5324 5325 5327 5328 5329 5329 5329 5330 5332 5334 5336 5337 5337 5337 5338 5339 5341 5341 5344
5296 5297 5297 5297 5298 5298 5299 5300 5300 5301 5302 5302 5303 5303 5304 5305 5306 5308 5309 5310 5311 5312 5313 5314 5314 5315 5316 5317 5318 5320 5321 5321 5321 5323 5324 5325 5326 5327
Wind_Speed
54 55 55 54 53 53 54 55 55 54 53 53 54 55 55 55 55 55 55 54 53 53 53 53 53 53 52 52 51 51 51 50 50 50 50 50 50 50
56 55 55 56 55 55 55 55 56 56 55 53 54 54 55 56 56 56 56 56 56 55 54 54 54 54 54 54 54 54 53 53 53 53 53 53 53 53
56 56 56 57 56 56 56 56 56 57 57 55 55 55 56 57 57 58 58 58 58 57 57 56 57 57 56 57 56 56 56 56 56 56 56 55 55 55
56 56 57 57 57 57 57 57 57 58 58 57 57 57 58 58 59 59 60 60 60 60 60 60 59 59 59 59 59 59 59 59 58 58 58 57 57 57
56 56 57 57 58 58 58 58 58 58 59 59 59 60 59 59 59 59 60 60 61 61 61 61 61 61 60 60 61 61 61 60 60 59 59 58 58 57
57 57 58 59 59 60 60 60 60 60 60 60 60 61 60 60 60 60 60 60 61 62 62 62 62 62 62 62 62 62 62 62 61 61 61 60 59 59
58 59 59 60 61 61 61 61 61 61 61 61 60 61 61 61 61 61 61 61 61 62 62 63 63 63 63 63 62 62 62 63 62 62 61 61 61 61
59 60 61 61 61 62 62 62 63 62 62 61 61 61 60 60 60 61 61 62 62 63 63 62 63 63 63 63 63 63 63 63 63 63 62 62 62 61
60 61 62 62 62 62 62 64 64 64 63 63 62 62 61 62 62 62 62 63 63 63 64 64 64 64 64 64 64 63 63 63 63 63 62 62 61 61
60 60 61 61 62 62 62 62 62 63 63 63 63 62 63 63 64 64 64 64 64 63 63 64 64 65 65 65 65 64 64 64 64 64 63 63 62 62
59 60 60 61 62 63 63 62 62 62 63 63 63 62 62 63 63 64 64 64 63 63 63 63 63 64 65 65 65 65 64 64 64 64 63 63 63 63
58 58 59 60 61 62 62 62 62 62 62 62 62 62 62 63 63 64 64 64 63 62 63 63 63 64 64 64 65 65 65 65 65 64 64 64 63 63
56 56 57 57 58 59 61 62 62 62 63 63 63 62 62 62 62 63 64 64 63 63 63 64 64 64 64 64 64 65 65 65 65 65 64 64 64 64
55 56 56 57 57 58 59 60 61 62 62 63 63 63 62 62 62 63 63 63 63 64 64 64 63 63 63 63 63 63 64 64 64 64 64 64 63 63
54 55 55 56 57 57 57 58 59 60 60 62 62 62 62 61 62 62 63 63 64 64 64 63 63 63 63 63 63 63 63 63 64 63 63 62 62 62
53 53 54 55 55 56 56 56 57 58 58 59 59 60 60 60 60 61 61 62 63 63 63 63 62 62 62 63 63 62 63 63 63 63 63 62 62 62
52 52 53 53 53 54 54 55 55 56 56 56 57 58 59 59 59 60 60 60 61 61 61 61 61 61 62 62 61 61 61 61 62 62 62 62 62 62
49 49 50 50 51 51 52 52 53 54 54 54 55 56 57 57 58 59 59 58 58 58 59 59 59 59 59 58 58 58 58 59 59 60 60 60 60 60
46 46 47 47 48 48 49 50 50 51 52 52 53 54 54 54 54 55 55 55 55 55 56 56 57 57 56 56 56 57 57 57 58 58 58 59 58 58
45 45 45 46 46 47 47 48 48 49 50 50 50 51 52 52 52 51 52 52 52 52 53 53 55 55 56 56 55 55 56 56 56 56 57 57 56 56
44 44 44 45 45 46 46 46 47 47 48 49 49 49 50 50 49 49 49 49 50 50 50 51 52 53 54 54 54 53 54 54 55 55 55 55 54 54
42 43 43 43 44 44 45 45 46 47 47 48 48 48 48 48 48 48 48 48 48 48 48 48 49 50 50 50 50 50 51 52 52 53 53 53 52 52
40 40 41 42 43 43 43 44 45 46 46 47 46 46 46 45 45 45 46 46 46 46 45 46 47 47 47 47 47 47 48 49 50 50 50 50 50 50
Wind_Direction
252 253 253 253 254 255 256 256 257 257 257 257 257 257 257 257 257 258 259 260 260 261 261 261 261 262 262 262 263 263 264 265 266 266 266 267 268 268
251 252 253 253 254 255 257 257 258 258 258 258 258 258 257 258 259 259 259 259 260 261 261 261 261 262 262 262 263 264 264 265 266 267 267 268 268 268
253 253 254 255 255 256 257 258 259 259 259 259 259 258 258 259 259 260 260 260 260 260 260 261 261 262 262 263 264 264 264 265 266 266 267 268 268 269
253 253 254 254 255 256 258 258 259 260 260 259 259 259 259 259 260 261 261 260 260 260 260 261 262 262 262 263 263 264 264 265 266 266 267 267 268 269
254 254 254 255 255 256 257 258 259 259 260 260 260 259 260 260 261 261 261 261 261 261 261 261 262 262 262 263 264 264 264 265 265 266 266 267 268 268
255 255 255 256 256 256 257 258 259 259 260 260 260 260 260 260 261 261 261 261 261 261 261 261 262 262 263 264 264 264 264 264 265 265 266 267 267 267
257 256 257 257 257 257 257 258 258 259 259 260 260 260 260 261 261 261 261 261 260 261 261 262 262 263 263 264 264 264 264 265 265 266 266 266 266 266
259 258 258 258 258 257 257 257 258 259 259 260 260 260 261 261 262 261 261 261 261 262 262 262 262 263 263 264 264 264 265 265 265 266 266 266 266 266
261 260 260 259 259 259 258 258 258 259 259 260 260 260 260 261 262 262 262 262 262 262 262 262 263 263 263 263 264 264 265 265 265 265 265 266 266 266
261 261 261 260 260 260 259 259 259 259 260 260 260 261 261 262 263 262 262 263 263 263 263 263 263 264 264 264 264 264 264 264 265 265 266 266 266 266
262 262 262 262 262 261 260 260 260 260 260 261 261 261 262 262 263 263 263 263 263 263 264 264 264 264 264 264 264 264 265 265 265 266 266 266 266 266
263 263 263 262 262 261 260 260 260 260 260 261 261 262 262 263 263 263 264 264 264 263 264 264 264 264 264 263 264 264 264 265 265 265 265 266 266 266
262 263 263 263 262 261 260 259 259 259 259 259 260 261 262 263 263 264 264 264 264 264 264 264 265 264 264 263 263 264 264 264 265 265 265 265 266 266
263 263 263 263 262 262 261 260 259 258 258 259 260 261 262 263 263 263 263 263 264 264 265 265 264 264 263 263 263 264 264 265 265 265 265 265 265 266
264 264 263 263 263 262 262 261 260 259 259 260 260 261 262 262 262 262 263 263 263 264 264 264 263 263 263 263 263 264 264 264 264 264 264 265 265 265
264 264 264 263 262 262 261 261 260 260 260 260 261 261 262 262 262 262 263 263 264 263 263 263 263 264 264 264 264 264 264 264 264 264 264 264 265 265
265 264 263 262 262 261 261 261 260 260 260 260 261 262 263 263 263 263 264 264 264 264 263 263 264 264 264 264 264 264 265 265 264 263 263 264 265 265
266 265 264 262 261 261 261 261 261 260 260 261 262 263 263 264 264 264 264 264 264 263 263 263 263 263 263 263 263 264 264 264 264 264 264 265 265 265
266 265 264 263 262 261 262 261 261 260 261 261 262 263 264 264 264 264 263 263 263 263 263 262 262 262 262 262 263 264 265 265 265 265 266 266 266 265
267 266 265 263 263 262 262 262 262 261 261 260 261 263 264 264 264 264 263 262 262 262 262 263 262 262 263 262 263 263 265 265 265 265 266 266 266 266
267 266 265 264 264 263 263 263 262 261 261 262 263 263 264 264 263 262 261 262 262 262 262 263 263 263 263 263 263 263 263 264 265 265 265 265 265 266
268 266 265 265 265 265 264 264 264 263 262 262 263 263 263 262 261 261 261 261 262 263 263 263 263 264 264 264 264 263 263 264 265 265 265 265 265 266
268 266 265 265 265 265 265 265 265 264 263 263 263 263 262 261 261 261 260 260 261 262 263 263 263 264 265 265 264 264 264 265 265 265 265 265 266 266